Home   Weather   Corner Brook   Past weeks

Flag for Canada Past Weather in Corner Brook, Newfoundland and Labrador, Canada — Yesterday and Last 2 Weeks

Now
28 °F

Light snow. More clouds than sun.


Feels Like: 23 °F
Forecast: 24 / 31 °F
Wind: 5 mph from Southwest

Location: Deer Lake

Current Time: Dec 9, 2016 at 10:23:49 am

Latest Report: Dec 9, 2016 at 9:30 am


Visibility: 3 mi

Pressure: 29.29 "Hg

Humidity: 93%

Dew Point: 27 °F

Location of Corner BrookLocation

Past Weather in Corner Brook — Graph

°F

Corner Brook Temperature Yesterday

Maximum temperature yesterday: 28 °F (at 2:30 pm)
Minimum temperature yesterday: 18 °F (at 5:30 am)
Average temperature yesterday: 24 °F

High & Low Weather Summary for the Past Weeks

 TemperatureHumidityPressure
High43 °F (Nov 28, 11:30 am)100% (Nov 27, 8:30 pm)30.31 "Hg (Nov 27, 8:30 pm)
Low7 °F (Dec 1, 7:30 am)60% (Nov 26, 2:30 pm)29.16 "Hg (Nov 28, 4:30 am)
Average27 °F83%29.87 "Hg
* Reported Nov 24 8:30 am — Dec 9 8:30 am, Corner Brook, Weather by CustomWeather, © 2016

Note: Actual official high and low records may vary slightly from our data, if they occured in-between our weather recording intervals... More about our weather records

Advertising

Corner Brook Weather History for the Previous 24 Hours

Scroll right to see more
 ConditionsComfort  
Time TempWeatherWind HumidityBarometerVisibility
8:30 am
Fri, Dec 9
28 °FLight snow. Overcast.2 mph93%29.29 "Hg1 mi
7:38 am28 °FLight snow. Overcast.No wind93%29.31 "Hg1 mi
6:30 am28 °FLight snow. Overcast.2 mph93%29.34 "Hg2 mi
5:30 am28 °FLight snow. Overcast.3 mph93%29.36 "Hg2 mi
4:30 am28 °FLight snow. Mostly cloudy.3 mph93%29.40 "Hg1 mi
3:30 am28 °FLight snow. Mostly cloudy.6 mph100%29.43 "Hg1 mi
2:30 am28 °FLight snow. Mostly cloudy.3 mph100%29.46 "Hg1 mi
1:30 am28 °FLight snow. Overcast.6 mph100%29.49 "Hg2 mi
12:30 am28 °FLight snow. Mostly cloudy.2 mph93%29.52 "Hg6 mi
11:30 pm
Thu, Dec 8
28 °FLight snow. Overcast.2 mph93%29.56 "Hg8 mi
10:30 pm28 °FPartly cloudy.5 mph93%29.58 "Hg15 mi
9:30 pm28 °FMostly cloudy.2 mph93%29.61 "Hg15 mi
8:30 pm28 °FLight snow. Overcast.No wind100%29.63 "Hg4 mi
7:30 pm28 °FSnow flurries. Mostly cloudy.2 mph93%29.65 "Hg3 mi
6:30 pm28 °FSnow flurries. Mostly cloudy.2 mph93%29.66 "Hg3 mi
6:27 pm28 °FSnow flurries. Mostly cloudy.No wind93%29.66 "Hg3 mi
5:30 pm28 °FSnow flurries. Overcast.2 mph93%29.68 "Hg12 mi
4:30 pm28 °FSnow flurries. Overcast.5 mph86%29.68 "Hg12 mi
3:30 pm28 °FSnow flurries. Overcast.3 mph86%29.70 "Hg12 mi
2:30 pm28 °FSnow flurries. Overcast.2 mph86%29.71 "Hg10 mi
1:30 pm27 °FSnow flurries. Overcast.3 mph86%29.73 "Hg12 mi
12:30 pm27 °FSnow flurries. Overcast.5 mph80%29.75 "Hg6 mi
11:30 am25 °FMostly cloudy.2 mph80%29.79 "Hg12 mi
10:30 am23 °FMostly cloudy.5 mph86%29.82 "Hg15 mi
Weather by CustomWeather, © 2016

See weather overviewHow to use our weather pages